TimeMST,TemperatureF,Dew PointF,Humidity,Sea Level PressureIn,VisibilityMPH,Wind Direction,Wind SpeedMPH,Gust SpeedMPH,PrecipitationIn,Events,Conditions,WindDirDegrees,DateUTC
12:53 AM,23.0,18.0,81,30.36,10.0,SE,5.8,-,N/A,,Clear,130,2014-01-02 07:53:00
1:53 AM,24.1,18.0,77,30.34,10.0,SE,5.8,-,N/A,,Clear,140,2014-01-02 08:53:00
2:53 AM,21.0,16.0,81,30.36,10.0,Calm,Calm,-,N/A,,Clear,0,2014-01-02 09:53:00
3:53 AM,19.9,15.1,81,30.35,10.0,SE,5.8,-,N/A,,Clear,130,2014-01-02 10:53:00
4:53 AM,19.0,14.0,81,30.37,10.0,Calm,Calm,-,N/A,,Clear,0,2014-01-02 11:53:00
5:53 AM,19.0,14.0,81,30.38,10.0,East,3.5,-,N/A,,Clear,90,2014-01-02 12:53:00
6:53 AM,18.0,14.0,84,30.40,10.0,Calm,Calm,-,N/A,,Clear,0,2014-01-02 13:53:00
7:53 AM,19.9,15.1,81,30.38,10.0,Calm,Calm,-,N/A,,Clear,0,2014-01-02 14:53:00
8:53 AM,21.9,18.0,85,30.40,10.0,Calm,Calm,-,N/A,,Clear,0,2014-01-02 15:53:00
9:53 AM,28.9,21.0,72,30.39,10.0,Calm,Calm,-,N/A,,Clear,0,2014-01-02 16:53:00
10:53 AM,33.1,21.0,61,30.37,10.0,WNW,3.5,-,N/A,,Clear,290,2014-01-02 17:53:00
11:53 AM,36.0,19.9,52,30.33,10.0,ENE,3.5,-,N/A,,Clear,60,2014-01-02 18:53:00
12:53 PM,39.0,21.9,50,30.30,10.0,ENE,4.6,-,N/A,,Clear,60,2014-01-02 19:53:00
1:53 PM,42.1,21.9,45,30.25,10.0,NNE,4.6,-,N/A,,Clear,30,2014-01-02 20:53:00
2:53 PM,43.0,24.1,47,30.25,10.0,East,3.5,-,N/A,,Clear,80,2014-01-02 21:53:00
3:53 PM,41.0,23.0,49,30.26,10.0,NE,3.5,-,N/A,,Clear,40,2014-01-02 22:53:00
4:53 PM,39.9,24.1,53,30.26,10.0,Calm,Calm,-,N/A,,Clear,0,2014-01-02 23:53:00
5:53 PM,35.1,23.0,61,30.28,10.0,Calm,Calm,-,N/A,,Clear,0,2014-01-03 00:53:00
6:53 PM,30.0,21.9,72,30.29,10.0,South,3.5,-,N/A,,Clear,190,2014-01-03 01:53:00
7:53 PM,28.0,21.0,75,30.29,10.0,Calm,Calm,-,N/A,,Clear,0,2014-01-03 02:53:00
8:53 PM,27.0,21.0,78,30.29,10.0,South,3.5,-,N/A,,Clear,190,2014-01-03 03:53:00
9:53 PM,24.1,19.0,81,30.27,10.0,Calm,Calm,-,N/A,,Clear,0,2014-01-03 04:53:00
10:53 PM,24.1,18.0,77,30.25,10.0,SSW,3.5,-,N/A,,Clear,200,2014-01-03 05:53:00
11:53 PM,25.0,19.0,78,30.23,10.0,SSW,4.6,-,N/A,,Clear,200,2014-01-03 06:53:00